Tracking 29892 objects as of 21-Nov-2024
HD Live streaming from Space Station
objects crossing your sky now

STARLINK-4131

Track STARLINK-4131 now!
10-day predictions
STARLINK-4131 is classified as:


NORAD ID: 53246
Int'l Code: 2022-086E
Perigee: 545.9 km
Apogee: 547.9 km
Inclination: 53.2 °
Period: 95.4 minutes
Semi major axis: 6917 km
RCS: Unknown
Launch date: July 24, 2022
Source: United States (US)
Launch site: AIR FORCE EASTERN TEST RANGE (AFETR)
Your satellite tracking list
Your tracking list is empty




NASA's NSSDC Master Catalog

Two Line Element Set (TLE):
1 53246U 22086E   24324.88883376  .00001808  00000-0  13166-3 0  9991
2 53246  53.2163 175.5802 0001425  93.9597 266.1558 15.08843479129064
Source of the keplerian elements: AFSPC